Date,TemperatureHighF,TemperatureAvgF,TemperatureLowF,DewpointHighF,DewpointAvgF,DewpointLowF,HumidityHigh,HumidityAvg,HumidityLow,PressureMaxIn,PressureMinIn,WindSpeedMaxMPH,WindSpeedAvgMPH,GustSpeedMaxMPH,PrecipitationSumIn
2012-1-1,53.7,44.5,32.5,46.0,39.7,31.1,97,84,62,30.09,29.65,7,0,7,0.07
2012-1-2,47.2,38.0,28.7,44.8,24.5,17.5,93,59,43,29.82,29.66,9,1,11,0.00
2012-1-3,29.0,25.0,16.0,23.4,10.4,-0.9,85,55,37,30.15,29.80,14,2,14,0.00
2012-1-4,27.2,20.9,13.0,16.2,7.4,0.1,67,56,41,30.23,29.96,7,0,7,0.00
2012-1-5,40.2,32.1,26.7,25.3,21.4,15.9,84,65,51,29.97,29.84,9,0,11,0.00
2012-1-6,53.7,37.6,25.7,32.9,28.9,22.5,92,73,43,29.94,29.72,5,0,5,0.00
2012-1-7,61.6,44.6,28.5,40.8,33.4,26.5,93,68,43,29.97,29.69,10,0,10,0.00
2012-1-8,46.5,38.8,30.0,31.4,26.9,20.8,88,63,48,30.31,29.97,10,1,10,0.00
2012-1-9,40.6,33.8,28.3,27.3,22.8,18.0,82,65,40,30.31,29.97,4,0,4,0.00
2012-1-10,48.2,38.4,29.9,32.3,28.6,24.0,90,69,52,29.99,29.86,7,0,8,0.00
2012-1-11,47.9,37.7,24.8,41.5,30.8,22.9,94,78,50,30.08,29.77,7,0,7,0.18
2012-1-12,48.8,44.5,42.8,47.4,43.1,41.3,98,95,91,29.77,29.41,11,1,11,0.74
2012-1-13,47.1,36.2,28.7,46.4,29.5,16.0,98,77,54,29.83,29.22,16,1,16,0.11
2012-1-14,33.3,30.0,27.2,23.3,19.3,16.3,84,64,51,30.08,29.83,9,1,9,0.00
2012-1-15,27.7,21.8,16.6,22.8,4.8,-0.8,82,48,33,30.57,30.08,14,2,14,0.00
2012-1-16,35.8,25.6,12.2,31.3,14.0,3.7,90,63,38,30.60,30.14,7,0,7,0.03
2012-1-17,50.9,39.2,33.3,48.3,38.1,31.1,98,96,90,30.14,29.51,4,0,4,0.26
2012-1-18,52.1,37.8,23.6,48.3,21.8,10.2,89,53,35,30.17,29.53,22,2,22,0.00
2012-1-19,34.6,28.5,18.0,26.5,19.6,11.3,80,69,58,30.23,29.92,7,0,7,0.00
2012-1-20,33.2,29.9,26.5,25.7,13.7,5.3,77,52,34,30.28,29.92,11,1,11,0.00
2012-1-21,29.0,25.8,22.6,24.4,20.7,11.2,92,82,47,30.29,29.95,8,1,8,0.00
2012-1-22,33.7,25.6,16.9,30.7,19.9,10.9,89,79,68,30.52,30.30,5,0,5,0.00
2012-1-23,50.6,39.2,33.7,50.0,38.1,30.8,99,96,88,30.39,29.86,5,0,5,0.46
2012-1-24,51.9,45.9,40.6,48.9,39.9,32.9,98,81,61,30.12,29.86,11,0,11,0.00
2012-1-25,45.2,40.8,36.4,33.6,29.7,27.0,78,65,55,30.30,30.11,11,1,11,0.00
2012-1-26,39.6,36.8,33.5,38.8,34.0,28.2,97,90,72,30.22,29.79,4,0,4,0.18
2012-1-27,56.7,46.4,39.5,56.4,42.8,33.4,99,88,67,29.85,29.32,13,1,13,0.24
2012-1-28,48.0,42.2,34.5,34.1,29.7,21.1,83,62,45,30.04,29.85,13,1,13,0.00
2012-1-29,44.6,38.3,31.9,24.6,19.1,13.4,60,46,35,30.18,30.01,10,0,10,0.00
2012-1-30,40.3,35.8,31.3,30.1,20.4,14.2,76,54,37,30.29,30.01,13,1,13,0.00
2012-1-31,60.0,42.9,31.4,34.3,28.7,18.5,80,59,38,30.23,30.00,2,0,6,0.00
2012-2-1,63.4,51.2,38.2,47.4,41.4,32.6,93,70,51,30.00,29.86,14,1,14,0.09
2012-2-2,49.1,42.0,35.9,40.2,31.9,23.0,89,68,56,30.25,29.97,13,1,13,0.00
2012-2-3,44.7,36.5,28.7,25.2,22.6,20.9,80,58,39,30.44,30.25,17,1,17,0.00
2012-2-4,45.7,38.0,28.3,29.7,26.7,24.1,86,65,45,30.33,30.09,9,0,9,0.00
2012-2-5,35.1,34.0,32.9,25.2,24.2,23.3,69,67,65,30.11,30.08,4,0,4,0.00
2012-2-6,51.5,40.0,25.2,32.4,27.4,21.1,86,62,44,30.16,29.96,10,0,10,0.00
2012-2-7,50.2,40.4,29.9,31.9,28.6,26.0,85,64,42,30.23,29.95,9,1,11,0.00
2012-2-8,38.5,33.4,30.7,30.0,25.9,18.5,94,76,47,30.30,30.08,1,0,7,0.00
2012-2-9,44.3,34.8,27.6,29.9,26.1,22.1,94,72,44,30.14,30.05,10,1,10,0.03
2012-2-10,46.2,36.5,26.3,32.0,26.4,22.7,87,68,46,30.13,29.90,8,0,8,0.00
2012-2-11,38.4,35.3,30.6,33.5,31.2,20.9,96,85,67,29.91,29.56,15,1,16,0.11
2012-2-12,32.8,27.0,20.6,21.1,13.8,2.9,74,58,39,29.97,29.68,22,2,22,0.00
2012-2-13,42.4,33.0,26.9,24.8,19.9,16.5,82,59,40,30.03,29.94,11,1,11,0.00
2012-2-14,47.8,38.2,29.7,37.4,26.1,16.7,93,65,31,30.10,29.98,5,0,5,0.01
2012-2-15,46.3,40.7,31.2,40.1,36.6,28.6,94,85,68,30.26,30.03,5,0,5,0.01
2012-2-16,41.4,35.9,27.6,40.3,34.3,25.9,97,94,87,30.28,30.00,3,0,3,0.16
2012-2-17,51.2,43.2,32.1,43.8,34.1,22.4,98,74,35,30.01,29.91,10,1,10,0.00
2012-2-18,49.3,39.6,28.4,38.1,27.7,22.4,94,65,37,30.07,29.84,10,0,10,0.04
2012-2-19,44.9,37.4,29.3,31.6,26.1,21.5,93,65,42,30.08,29.90,7,1,7,0.00
2012-2-20,46.4,37.4,28.2,23.2,19.0,11.6,69,49,29,30.32,29.95,10,1,10,0.00
2012-2-21,50.2,37.3,22.8,36.0,27.1,18.1,88,69,40,30.34,29.84,10,1,10,0.00
2012-2-22,57.8,46.6,32.6,39.5,34.6,28.4,96,67,33,29.84,29.45,6,0,6,0.00
2012-2-23,58.9,49.1,38.5,41.9,33.6,24.2,92,59,28,29.73,29.36,13,1,13,0.00
2012-2-24,46.9,41.9,37.9,43.1,38.4,28.8,97,88,50,29.69,29.33,8,1,8,0.39
2012-2-25,44.8,40.1,34.9,33.2,25.2,13.1,69,55,42,30.04,29.42,12,2,14,0.00
2012-2-26,44.6,35.7,28.5,24.1,17.9,12.9,81,49,34,30.42,30.04,13,1,13,0.00
2012-2-27,58.7,41.8,24.6,35.7,29.7,22.0,92,66,36,30.42,30.06,6,0,8,0.00
2012-2-28,50.8,43.7,34.3,33.4,24.8,21.3,70,48,32,30.36,30.11,10,1,10,0.00
2012-2-29,44.0,39.9,34.6,41.1,34.8,24.4,96,82,63,30.35,29.70,7,0,7,0.22
2012-3-1,45.5,41.2,37.7,41.6,38.9,34.8,97,91,81,29.93,29.62,7,0,7,0.00
2012-3-2,42.8,39.0,35.2,41.4,35.6,31.2,96,88,83,30.10,29.75,14,1,14,0.13
2012-3-3,56.4,48.2,42.5,49.0,38.7,23.5,98,74,37,29.75,29.45,9,0,9,0.08
2012-3-4,47.1,41.0,34.3,27.1,24.8,20.5,70,53,39,29.75,29.57,11,1,11,0.00
2012-3-5,45.1,36.5,28.8,26.2,17.6,6.8,76,48,28,30.38,29.75,9,1,11,0.00
2012-3-6,44.5,35.1,24.1,25.1,15.8,8.6,69,46,30,30.61,30.38,6,0,7,0.00
2012-3-7,62.4,47.0,29.8,45.3,33.4,25.0,89,63,32,30.56,30.29,5,0,5,0.00
2012-3-8,70.7,60.3,46.6,53.2,49.2,42.6,89,68,51,30.29,29.80,11,1,11,0.00
2012-3-9,63.8,45.9,38.2,54.2,30.0,18.2,85,55,33,30.26,29.80,12,2,12,0.04
2012-3-10,42.4,35.4,29.3,22.1,15.0,8.3,73,44,32,30.51,30.25,10,1,10,0.00
2012-3-11,60.7,43.7,26.5,33.2,27.6,19.9,81,56,32,30.52,30.31,6,0,6,0.00
2012-3-12,71.6,53.0,35.5,42.7,36.3,31.0,88,57,27,30.34,30.10,8,0,8,0.00
2012-3-13,74.6,61.4,51.8,59.5,53.3,42.4,97,76,53,30.10,29.88,5,0,5,0.07
2012-3-14,71.2,59.2,46.2,52.8,38.1,23.4,94,54,17,30.16,29.95,8,0,8,0.00
2012-3-15,50.0,46.2,44.3,43.3,41.7,32.0,95,85,57,30.31,30.15,8,1,8,0.00
2012-3-16,50.9,46.2,43.1,48.0,44.7,41.7,97,94,89,30.27,30.10,7,0,7,0.01
2012-3-17,62.4,50.3,38.6,52.3,45.1,37.6,99,84,64,30.35,30.16,7,0,7,0.00
2012-3-18,65.0,52.3,45.8,54.8,48.2,44.1,95,87,68,30.35,30.17,5,0,5,0.00
2012-3-19,77.0,60.4,44.6,58.8,50.6,43.2,98,73,45,30.20,30.11,7,0,7,0.00
2012-3-20,73.0,61.6,54.5,62.5,57.1,51.3,98,86,65,30.30,30.19,7,0,7,0.00
2012-3-21,67.3,59.9,54.9,61.0,57.3,53.7,98,92,77,30.33,30.25,4,0,4,0.00
2012-3-22,76.7,63.8,55.3,63.5,59.0,54.5,99,86,61,30.27,30.05,5,0,5,0.00
2012-3-23,77.3,62.0,53.1,60.1,52.1,39.5,98,72,48,30.07,30.01,13,1,13,0.00
2012-3-24,61.5,54.8,48.9,48.0,39.0,25.5,91,58,27,30.07,29.94,13,1,13,0.11
2012-3-25,54.5,49.0,45.5,46.5,44.1,41.0,92,83,72,29.94,29.71,7,0,7,0.00
2012-3-26,54.2,46.2,35.8,46.0,27.0,6.1,97,54,22,30.12,29.67,17,2,17,0.00
2012-3-27,52.2,40.3,30.5,24.3,6.9,-1.8,56,27,11,30.29,30.12,9,1,10,0.00
2012-3-28,67.5,51.8,36.1,49.9,38.3,22.1,80,61,43,30.14,29.53,5,0,6,0.03
2012-3-29,61.3,53.0,44.5,50.7,37.6,28.8,77,56,45,30.01,29.55,12,2,12,0.00
2012-3-30,56.7,46.8,35.9,41.5,29.2,23.4,89,52,32,30.07,29.90,8,1,8,0.04
2012-3-31,44.5,41.9,40.1,41.6,39.8,38.4,96,92,88,29.97,29.83,7,0,7,0.04
2012-4-1,53.2,47.0,41.1,46.5,42.2,39.2,96,84,65,29.89,29.58,5,0,5,0.00
2012-4-2,57.2,48.8,40.8,46.4,30.2,16.7,96,55,23,29.87,29.57,13,2,13,0.00
2012-4-3,45.8,44.3,42.5,25.5,23.6,21.6,49,44,38,29.88,29.87,0,0,0,0.00
2012-4-4,69.8,57.9,48.7,39.8,30.5,23.0,69,38,19,29.76,29.50,11,2,11,0.00
2012-4-5,58.4,49.8,41.5,31.8,28.1,25.2,60,44,31,29.91,29.71,16,1,16,0.00
2012-4-6,58.5,47.7,34.6,27.4,22.4,14.9,72,40,19,30.02,29.86,11,2,11,0.00
2012-4-7,61.2,50.7,37.8,22.9,18.7,13.2,54,30,16,30.08,29.93,11,2,13,0.00
2012-4-8,68.0,55.1,37.4,36.5,25.0,17.3,66,34,16,30.01,29.63,10,1,10,0.00
2012-4-9,64.8,55.9,47.2,33.2,26.9,21.2,54,34,20,29.74,29.61,13,1,13,0.00
2012-4-10,63.4,51.4,39.6,40.6,32.2,25.0,83,51,26,29.79,29.64,8,1,8,0.00
2012-4-11,53.8,48.0,42.6,36.0,32.0,27.2,74,55,37,29.89,29.76,8,1,8,0.00
2012-4-12,58.2,51.1,42.8,37.4,33.7,29.1,76,53,35,30.10,29.88,8,1,8,0.00
2012-4-13,65.1,53.2,37.7,36.7,31.1,25.5,80,46,24,30.19,30.09,6,0,7,0.00
2012-4-14,73.4,58.0,39.4,45.9,35.7,29.4,81,48,20,30.20,29.99,6,0,6,0.00
2012-4-15,77.9,67.2,58.6,59.7,54.0,41.4,84,64,45,30.01,29.92,5,0,5,0.00
2012-4-16,90.5,73.0,54.6,61.3,56.9,52.3,94,63,30,30.00,29.85,9,0,9,0.00
2012-4-17,79.8,70.0,62.2,60.1,44.4,29.6,85,45,17,30.12,29.89,7,1,8,0.00
2012-4-18,64.7,56.5,50.2,46.2,36.8,27.6,83,49,33,30.24,30.10,7,0,7,0.01
2012-4-19,71.4,58.2,47.8,50.3,47.0,40.9,94,70,35,30.11,29.95,5,0,5,0.03
2012-4-20,70.8,59.0,46.4,55.2,49.8,44.2,95,74,47,30.01,29.83,9,0,9,0.00
2012-4-21,77.6,66.6,55.6,60.7,57.3,52.5,92,74,49,29.83,29.59,11,1,11,0.19
2012-4-22,55.5,50.6,47.0,52.6,48.0,45.6,96,91,81,29.77,29.27,11,1,11,1.09
2012-4-23,50.8,48.2,42.3,49.2,45.0,37.9,98,89,77,29.39,29.10,8,0,8,0.04
2012-4-24,62.2,50.1,39.9,38.6,34.1,25.7,87,58,27,29.69,29.38,8,0,8,0.00
2012-4-25,63.2,50.8,35.8,39.7,35.2,27.7,95,60,28,29.88,29.69,9,0,9,0.00
2012-4-26,60.3,51.2,38.1,55.5,47.9,35.5,97,89,76,29.90,29.56,4,0,4,0.00
2012-4-27,56.5,50.2,41.5,55.5,34.4,26.4,98,56,37,30.14,29.56,12,2,12,0.00
2012-4-28,60.0,49.2,33.9,33.9,30.5,25.4,85,51,31,30.24,30.08,6,0,6,0.00
2012-4-29,65.3,53.3,38.3,34.9,24.1,14.4,84,37,15,30.23,30.05,14,1,14,0.00
2012-4-30,64.3,51.8,35.0,42.3,31.0,20.8,80,47,26,30.32,30.17,8,0,8,0.00
2012-5-1,73.4,60.2,51.6,61.6,53.8,42.2,97,81,60,30.17,29.94,5,0,6,0.42
2012-5-2,58.6,52.7,50.3,53.9,50.2,48.7,96,91,84,30.16,30.04,5,0,5,0.13
2012-5-3,59.8,54.9,51.0,56.8,53.1,49.3,98,94,88,30.20,30.04,5,0,5,0.26
2012-5-4,76.4,62.8,54.5,68.7,59.7,53.7,98,90,73,30.08,29.80,4,0,4,0.01
2012-5-5,64.3,59.0,56.5,60.1,56.7,54.2,97,92,83,30.03,29.82,4,0,4,0.00
2012-5-6,65.2,58.5,51.0,55.0,51.5,44.7,96,79,55,30.09,30.00,5,0,5,0.02
2012-5-7,67.4,56.9,48.9,56.1,49.1,44.3,92,76,60,30.12,30.06,3,0,4,0.01
2012-5-8,71.3,62.2,55.9,61.7,54.7,47.2,95,77,58,30.06,29.79,7,0,8,0.11
2012-5-9,70.7,64.8,59.7,66.5,62.9,55.1,98,94,72,29.80,29.55,3,0,3,0.17
2012-5-10,65.5,58.8,47.4,55.6,46.5,35.2,97,67,35,29.83,29.49,10,1,10,0.13
2012-5-11,71.1,57.5,42.7,44.4,38.7,29.4,93,56,22,30.10,29.82,9,1,9,0.00
2012-5-12,79.0,62.8,43.9,53.3,45.4,37.9,95,59,25,30.21,30.10,7,0,7,0.00
2012-5-13,82.8,69.1,55.4,59.8,53.6,47.7,85,61,31,30.16,30.04,5,0,5,0.00
2012-5-14,69.8,65.9,63.1,62.7,60.7,57.6,95,83,69,30.13,30.06,2,0,2,0.03
2012-5-15,68.9,64.5,61.5,66.8,63.1,60.5,98,96,92,30.09,29.89,3,0,3,0.47
2012-5-16,79.8,70.0,63.1,69.1,63.5,56.9,99,82,49,29.91,29.78,3,0,3,0.22
2012-5-17,73.2,64.3,54.0,58.0,45.1,37.9,83,52,29,30.11,29.87,8,1,8,0.00
2012-5-18,70.5,59.7,49.6,51.3,44.8,37.5,91,61,34,30.20,30.10,5,0,5,0.00
2012-5-19,80.6,63.6,46.5,51.8,47.4,43.9,93,60,30,30.16,30.07,4,0,4,0.00
2012-5-20,77.2,66.9,51.3,59.5,51.4,28.7,92,62,18,30.20,30.12,8,1,8,0.00
2012-5-21,64.6,62.2,58.7,62.8,60.4,57.1,98,94,79,30.17,29.96,4,0,4,1.29
2012-5-22,72.5,65.6,61.3,66.7,63.5,60.7,99,93,80,29.96,29.78,4,0,4,0.09
2012-5-23,78.2,69.6,64.9,69.2,65.7,63.0,99,88,69,30.01,29.83,4,0,4,0.05
2012-5-24,68.4,64.9,62.5,66.0,63.6,61.7,98,95,91,30.16,30.00,5,0,5,0.00
2012-5-25,77.6,67.5,62.6,71.7,65.7,62.0,99,94,81,30.17,30.08,3,0,3,0.00
2012-5-26,86.8,72.5,62.9,75.9,68.7,62.0,99,89,67,30.12,30.03,4,0,4,0.00
2012-5-27,82.5,73.7,67.1,73.8,68.9,60.7,98,86,67,30.15,29.96,3,0,3,0.01
2012-5-28,90.5,78.7,68.7,74.9,70.4,66.9,95,77,54,29.97,29.86,4,0,4,0.00
2012-5-29,92.2,80.0,69.2,75.7,71.1,65.6,97,77,48,29.87,29.65,7,0,7,0.11
2012-5-30,77.7,71.2,66.9,69.9,67.5,63.7,98,89,67,29.75,29.68,2,0,2,0.02
2012-5-31,81.3,71.6,63.2,63.8,56.2,49.2,97,62,34,29.90,29.68,6,0,6,0.00
2012-6-1,71.6,64.1,59.3,63.9,57.1,50.2,97,78,60,29.97,29.70,9,1,10,0.08
2012-6-2,73.7,66.3,57.9,66.8,58.3,49.4,98,77,52,29.75,29.61,7,0,7,0.22
2012-6-3,77.8,63.0,52.3,60.5,54.4,50.3,95,75,42,29.75,29.62,8,0,10,0.03
2012-6-4,63.6,58.5,54.3,57.9,54.5,49.9,97,87,66,29.78,29.58,6,0,6,0.45
2012-6-5,65.6,57.9,48.4,56.3,50.1,45.6,96,77,52,29.93,29.78,7,0,7,0.00
2012-6-6,73.5,62.2,49.4,58.2,53.7,47.8,98,76,46,29.98,29.89,4,0,4,0.00
2012-6-7,77.5,65.7,57.6,60.6,56.4,52.2,95,74,43,29.96,29.88,8,0,8,0.01
2012-6-8,83.1,68.9,54.2,60.7,56.5,52.5,98,69,36,29.93,29.80,6,0,6,0.00
2012-6-9,81.1,70.0,60.8,63.8,59.3,55.8,87,70,45,29.95,29.84,5,0,5,0.00
2012-6-10,88.0,73.7,65.3,69.8,65.6,61.3,96,78,47,30.14,29.94,14,0,14,0.63
2012-6-11,75.7,68.8,63.7,66.6,63.5,58.9,98,84,62,30.21,30.12,6,0,6,0.00
2012-6-12,72.9,68.2,66.4,68.8,65.7,61.7,98,92,82,30.15,29.85,7,0,7,1.21
2012-6-13,75.0,69.0,64.5,66.0,63.9,60.0,99,85,62,30.03,29.81,6,1,10,0.21
2012-6-14,76.5,68.6,61.3,64.5,62.0,58.0,95,80,62,30.23,30.03,5,0,5,0.00
2012-6-15,78.2,68.0,57.3,60.9,56.6,51.6,98,70,45,30.27,30.21,6,0,6,0.00
2012-6-16,79.8,67.6,55.7,59.3,55.7,51.4,97,69,39,30.31,30.19,5,0,5,0.00
2012-6-17,71.3,65.0,57.1,61.0,58.3,54.0,90,79,67,30.21,30.07,5,0,5,0.00
2012-6-18,70.3,62.4,52.8,60.4,56.6,51.0,96,82,65,30.14,30.06,4,0,4,0.00
2012-6-19,78.5,70.0,62.5,70.6,64.3,58.6,91,82,72,30.14,30.03,3,0,3,0.00
2012-6-20,96.7,81.9,67.5,76.2,71.3,66.0,97,73,46,30.06,29.91,5,0,5,0.00
2012-6-21,95.9,84.5,72.5,74.1,71.5,67.6,93,68,43,29.92,29.75,6,0,6,0.00
2012-6-22,90.6,78.5,70.1,76.3,71.5,68.2,98,81,56,29.80,29.71,13,0,13,0.35
2012-6-23,85.5,75.2,64.8,70.6,61.7,51.6,98,68,34,29.96,29.78,7,0,7,0.00
2012-6-24,86.1,73.7,60.0,65.4,60.2,53.2,94,66,36,29.99,29.86,5,0,5,0.00
2012-6-25,76.7,69.6,64.6,68.4,63.1,49.9,97,81,51,29.86,29.61,9,0,9,0.48
2012-6-26,73.3,66.0,57.1,54.9,51.1,47.1,77,60,41,29.77,29.68,11,1,11,0.00
2012-6-27,83.6,70.4,56.1,57.5,53.0,49.5,87,58,33,29.82,29.71,8,0,10,0.00
2012-6-28,89.7,76.1,62.6,66.5,60.5,55.6,82,61,38,29.83,29.69,4,0,4,0.00
2012-6-29,95.2,81.7,69.2,75.9,69.9,63.2,87,69,49,29.70,29.60,7,0,7,0.00
2012-6-30,95.5,82.9,73.1,73.8,67.0,59.7,87,62,31,29.77,29.62,5,0,5,0.00
2012-7-1,95.8,81.2,67.5,72.3,67.2,59.7,93,66,38,29.83,29.73,9,0,9,0.00
2012-7-2,88.3,78.3,65.5,62.9,59.2,55.2,82,54,34,29.90,29.82,8,0,8,0.00
2012-7-3,91.5,78.2,63.4,68.4,62.2,58.0,91,61,34,29.94,29.79,5,0,5,0.00
2012-7-4,94.0,82.2,71.1,73.3,69.6,65.0,96,67,46,29.83,29.68,6,0,6,0.05
2012-7-5,94.8,84.3,75.1,74.4,67.6,59.0,89,60,34,29.83,29.69,7,0,8,0.00
2012-7-6,94.8,80.9,66.1,68.9,61.3,48.2,92,57,21,29.90,29.81,5,0,5,0.00
2012-7-7,98.2,84.1,73.7,74.8,70.1,63.9,88,65,37,29.85,29.72,6,0,6,0.00
2012-7-8,92.3,82.2,75.1,72.2,67.3,59.8,88,63,34,29.85,29.76,5,0,5,0.00
2012-7-9,86.5,78.8,72.0,64.1,59.7,56.1,69,53,37,29.94,29.83,5,0,5,0.00
2012-7-10,87.7,76.6,65.8,66.4,60.8,54.3,84,60,33,30.05,29.94,4,0,4,0.00
2012-7-11,86.8,77.0,67.5,70.3,64.0,55.7,91,67,44,30.16,30.05,5,0,5,0.00
2012-7-12,91.6,78.4,66.8,66.5,62.5,55.5,91,61,36,30.18,30.08,6,0,6,0.00
2012-7-13,89.1,78.4,68.2,69.9,65.4,61.4,85,66,44,30.18,30.10,3,0,3,0.00
2012-7-14,83.7,77.4,71.1,68.9,65.8,62.1,81,69,52,30.18,30.11,6,0,6,0.00
2012-7-15,89.8,78.6,71.3,77.4,72.0,67.3,96,81,61,30.12,29.90,6,0,6,0.49
2012-7-16,90.4,78.9,69.0,74.5,70.8,68.1,98,79,50,29.92,29.76,6,0,6,0.00
2012-7-17,97.2,82.7,68.1,71.5,67.9,64.1,93,64,37,29.83,29.71,6,0,7,0.00
2012-7-18,102.3,82.7,73.9,76.8,72.7,70.0,97,74,38,29.86,29.71,10,0,10,0.22
2012-7-19,77.5,72.3,69.0,73.1,69.1,63.8,98,90,64,29.95,29.83,4,0,4,0.13
2012-7-20,70.4,66.1,63.1,67.8,64.7,62.2,98,96,89,30.03,29.90,5,0,5,0.80
2012-7-21,78.7,69.7,62.7,63.9,61.1,56.3,97,76,51,30.10,30.00,4,0,4,0.00
2012-7-22,84.0,72.8,61.6,68.8,64.2,59.6,96,76,56,30.14,30.06,4,0,4,0.00
2012-7-23,90.8,75.6,66.7,75.3,69.9,64.4,95,84,55,30.10,29.78,3,0,3,0.10
2012-7-24,94.0,81.0,70.4,75.3,68.7,61.1,98,70,39,29.79,29.55,10,1,10,0.00
2012-7-25,86.4,75.9,65.2,62.3,56.8,52.2,73,53,35,29.88,29.71,8,0,8,0.00
2012-7-26,91.1,75.3,65.6,76.6,68.5,60.1,97,81,59,29.78,29.58,9,0,9,0.63
2012-7-27,87.2,77.7,70.5,74.4,72.1,69.8,98,84,62,29.84,29.65,4,0,4,0.01
2012-7-28,79.5,75.2,69.9,75.2,72.3,69.0,97,91,83,29.93,29.82,4,0,4,0.24
2012-7-29,81.4,72.0,67.8,70.8,68.5,66.9,98,90,63,30.02,29.89,4,0,4,0.19
2012-7-30,82.5,72.9,66.4,70.9,67.7,65.5,99,85,63,30.09,30.02,5,0,5,0.00
2012-7-31,79.9,73.1,67.2,68.9,67.3,65.4,96,83,64,30.06,29.88,3,0,3,0.00
2012-8-1,80.8,72.2,68.6,73.5,70.2,66.4,98,93,76,29.90,29.81,3,0,3,0.43
2012-8-2,89.2,76.4,67.2,74.5,69.9,66.3,99,83,48,29.89,29.82,5,0,5,0.00
2012-8-3,91.3,79.7,70.1,77.7,72.7,68.9,98,81,49,30.07,29.89,4,0,4,0.00
2012-8-4,91.8,78.4,71.4,76.9,73.3,68.5,97,86,50,30.17,30.06,5,0,5,0.43
2012-8-5,92.0,81.0,72.9,78.7,74.8,71.5,97,83,53,30.15,29.92,8,0,8,0.33
2012-8-6,86.7,79.0,68.6,74.2,67.3,60.4,99,70,43,30.00,29.92,6,0,6,0.23
2012-8-7,83.0,73.3,62.5,69.1,64.3,60.6,96,75,52,29.99,29.92,3,0,3,0.00
2012-8-8,88.2,78.2,67.2,74.0,69.6,60.6,97,77,41,29.96,29.89,4,0,4,0.00
2012-8-9,90.0,77.4,70.3,74.9,71.0,68.0,98,82,53,29.93,29.82,4,0,4,0.00
2012-8-10,79.5,75.6,70.4,76.0,73.1,69.1,98,92,84,29.85,29.72,3,0,3,1.41
2012-8-11,87.7,77.7,71.2,75.8,72.3,69.8,99,85,60,29.89,29.76,4,0,4,0.06
2012-8-12,86.0,75.5,68.4,71.1,67.6,62.1,98,79,52,29.93,29.85,4,0,4,0.00
2012-8-13,85.5,73.6,63.3,65.8,62.6,57.5,95,71,42,29.99,29.91,5,0,5,0.00
2012-8-14,78.1,71.3,64.1,71.6,67.8,62.0,95,89,77,29.95,29.84,5,0,5,0.07
2012-8-15,87.8,74.8,67.7,73.2,70.2,66.8,98,87,55,29.86,29.78,5,0,5,0.95
2012-8-16,84.5,73.3,65.1,67.3,64.4,59.4,98,77,46,29.90,29.82,6,0,6,0.00
2012-8-17,88.4,74.7,62.8,70.5,65.9,60.8,95,76,49,29.87,29.73,7,0,7,0.03
2012-8-18,79.1,69.5,62.2,69.0,62.3,55.0,98,80,45,29.91,29.82,5,0,5,0.31
2012-8-19,73.0,65.5,56.3,62.6,58.5,54.3,96,79,55,29.96,29.89,3,0,3,0.00
2012-8-20,79.0,70.2,61.1,65.7,61.8,57.6,96,76,53,29.91,29.81,3,0,3,0.00
2012-8-21,81.4,71.7,62.6,65.6,62.5,56.4,95,75,44,30.07,29.90,5,0,5,0.00
2012-8-22,82.5,71.9,62.5,67.5,64.0,60.8,97,78,52,30.12,30.06,3,0,3,0.00
2012-8-23,86.3,72.8,62.2,68.3,63.9,59.9,97,76,42,30.14,30.06,3,0,3,0.00
2012-8-24,85.6,74.5,64.2,67.7,64.6,60.0,97,74,44,30.15,30.09,4,0,4,0.00
2012-8-25,83.3,73.5,67.0,70.6,66.9,64.5,96,81,57,30.24,30.15,5,0,6,0.00
2012-8-26,80.7,72.9,67.3,67.9,65.7,61.0,92,79,55,30.29,30.19,5,0,5,0.00
2012-8-27,79.4,73.1,66.9,74.5,70.3,65.4,98,91,80,30.20,29.93,5,0,5,0.86
2012-8-28,86.5,77.3,71.2,73.2,68.0,58.0,98,76,41,29.93,29.78,7,0,7,0.05
2012-8-29,79.7,70.5,61.7,63.1,59.0,54.1,92,69,45,30.00,29.88,6,0,6,0.00
2012-8-30,82.0,68.8,56.6,62.9,57.6,52.5,96,71,40,30.08,29.99,5,0,5,0.00
2012-8-31,90.2,74.4,60.1,69.7,62.6,58.1,96,71,35,30.04,29.88,5,0,5,0.00
2012-9-1,90.0,77.7,68.7,71.6,66.5,57.8,92,71,36,30.03,29.90,6,0,6,0.00
2012-9-2,80.5,74.2,69.9,72.7,70.4,68.0,96,88,71,30.05,29.98,3,0,3,0.05
2012-9-3,74.8,71.8,69.5,70.5,69.0,67.2,98,91,78,30.11,30.04,6,0,6,0.05
2012-9-4,80.3,73.7,69.4,75.6,72.2,68.5,99,95,83,30.06,29.80,5,0,5,0.27
2012-9-5,80.4,75.8,67.0,76.3,72.1,65.2,98,89,69,29.81,29.75,11,0,11,0.07
2012-9-6,79.0,70.8,63.6,71.3,67.3,62.4,98,89,73,29.88,29.80,2,0,2,0.00
2012-9-7,88.5,76.2,67.2,75.4,70.4,66.3,99,84,61,29.90,29.80,4,0,4,0.00
2012-9-8,85.2,73.9,65.3,76.3,69.9,64.2,97,88,63,29.84,29.53,7,0,7,0.22
2012-9-9,77.2,67.9,60.0,64.4,58.7,50.5,98,75,42,29.87,29.75,7,0,7,0.01
2012-9-10,73.2,63.9,55.2,57.2,51.2,45.0,90,65,42,30.12,29.87,10,1,10,0.00
2012-9-11,73.1,59.7,47.3,55.7,49.5,44.4,96,72,37,30.26,30.12,5,0,5,0.00
2012-9-12,79.5,64.1,50.2,59.5,54.1,48.7,98,73,40,30.34,30.26,3,0,3,0.00
2012-9-13,80.5,66.5,53.6,63.0,58.0,51.9,97,77,47,30.35,30.24,4,0,4,0.00
2012-9-14,81.3,67.9,55.7,64.0,59.6,54.2,98,77,46,30.26,30.06,3,0,3,0.00
2012-9-15,72.4,64.7,55.0,61.4,53.7,48.1,94,69,45,30.12,30.04,10,1,10,0.00
2012-9-16,74.6,61.1,50.5,54.3,50.6,47.6,96,72,40,30.11,30.00,6,0,6,0.00
2012-9-17,77.5,63.2,48.7,60.8,52.4,47.0,97,71,40,30.09,30.00,4,0,4,0.00
2012-9-18,78.3,71.2,67.6,71.4,67.7,60.8,97,89,76,30.00,29.57,11,1,14,1.11
2012-9-19,69.5,62.5,51.5,67.0,51.9,44.7,98,71,42,30.15,29.71,9,0,9,0.00
2012-9-20,68.9,59.4,49.5,61.3,54.1,46.4,95,83,67,30.18,30.08,4,0,4,0.00
2012-9-21,72.7,63.9,56.7,61.7,58.4,55.5,97,83,62,30.09,29.99,5,0,5,0.00
2012-9-22,81.0,66.7,54.1,69.1,61.7,52.8,98,85,64,29.99,29.74,4,0,5,0.42
2012-9-23,68.2,60.1,51.3,63.7,50.7,42.5,97,74,42,30.10,29.84,8,0,8,0.07
2012-9-24,66.5,55.4,47.7,50.1,46.0,40.2,97,74,40,30.16,30.08,5,0,5,0.00
2012-9-25,72.5,57.9,42.8,56.2,49.5,41.3,97,76,47,30.19,30.09,4,0,4,0.00
2012-9-26,76.2,66.0,59.7,68.2,61.9,55.8,97,87,67,30.12,29.98,4,0,4,0.13
2012-9-27,73.8,66.4,62.8,66.6,64.0,61.9,99,92,74,30.14,30.02,4,0,4,0.05
2012-9-28,76.0,67.0,61.5,69.9,64.4,57.6,99,92,76,30.13,29.90,4,0,4,0.45
2012-9-29,65.4,61.2,56.2,57.8,56.5,54.0,94,85,70,29.92,29.84,4,0,4,0.00
2012-9-30,67.6,57.8,51.2,56.7,53.4,49.1,96,86,54,29.86,29.75,5,0,5,0.05
2012-10-1,69.9,57.8,48.1,55.2,51.3,47.3,98,81,52,29.94,29.82,6,0,6,0.00
2012-10-2,67.0,62.2,58.2,63.9,60.1,54.7,98,93,79,29.99,29.92,4,0,4,0.43
2012-10-3,71.1,66.7,62.8,70.8,66.3,62.2,99,99,98,30.09,29.95,2,0,2,0.00
2012-10-4,74.5,68.8,63.6,72.2,67.8,62.7,99,97,89,30.11,30.01,3,0,3,0.01
2012-10-5,77.5,65.5,55.9,63.9,60.1,55.2,99,85,57,30.05,29.90,4,0,4,0.00
2012-10-6,76.2,62.2,50.5,65.3,56.9,47.9,99,84,64,29.98,29.74,8,0,8,0.00
2012-10-7,51.4,48.4,43.3,49.2,46.3,41.8,96,92,75,30.10,29.98,3,0,3,0.16
2012-10-8,53.9,48.2,40.8,47.5,44.2,40.0,98,87,64,30.26,30.09,5,0,5,0.01
2012-10-9,58.7,53.9,49.2,55.1,51.0,45.5,95,90,84,30.20,30.05,5,0,5,0.03
2012-10-10,65.8,58.1,54.0,58.8,53.1,44.4,98,85,60,30.05,29.78,6,0,6,0.18
2012-10-11,58.9,51.2,43.6,44.9,39.4,35.0,86,65,42,30.19,29.95,8,0,8,0.00
2012-10-12,57.3,47.3,39.2,45.3,37.2,29.1,97,71,44,30.42,30.06,12,1,12,0.00
2012-10-13,54.2,43.7,30.5,42.3,32.5,24.7,95,68,34,30.50,30.28,4,0,5,0.00
2012-10-14,71.0,58.4,46.2,56.1,50.5,42.1,91,76,52,30.29,29.92,5,0,5,0.00
2012-10-15,69.6,62.0,55.2,63.6,59.2,53.3,98,91,76,29.92,29.61,5,0,5,0.26
2012-10-16,58.7,52.8,41.5,57.7,43.1,38.1,97,71,48,29.91,29.65,10,1,10,0.00
2012-10-17,61.7,48.4,36.7,47.5,41.7,35.4,97,80,51,30.00,29.90,3,0,3,0.00
2012-10-18,68.0,54.5,39.9,59.5,49.3,38.6,98,84,55,30.02,29.89,5,0,5,0.00
2012-10-19,69.2,64.9,61.8,67.4,63.3,59.4,98,95,90,29.89,29.62,5,0,5,0.79
2012-10-20,67.3,58.9,47.8,61.4,52.5,44.6,99,81,53,29.82,29.62,6,0,6,0.00
2012-10-21,64.8,54.3,45.2,46.9,44.2,41.1,92,71,43,30.03,29.82,7,0,7,0.00
2012-10-22,68.0,54.9,43.3,49.2,44.9,41.1,93,71,41,30.10,29.99,8,0,11,0.00
2012-10-23,63.2,54.7,44.7,55.3,49.8,43.1,96,84,63,30.11,30.03,2,0,2,0.00
2012-10-24,63.2,58.8,55.8,58.5,55.7,53.1,94,90,83,30.17,30.05,4,0,4,0.00
2012-10-25,62.2,59.0,56.9,57.0,55.4,54.0,92,88,81,30.25,30.16,4,0,4,0.00
2012-10-26,67.0,61.4,58.1,59.3,57.4,55.6,95,87,73,30.20,30.09,3,0,3,0.00
2012-10-27,65.2,60.9,57.5,58.4,55.9,54.2,92,84,69,30.08,29.87,3,0,5,0.00
2012-10-28,59.4,57.9,56.3,55.1,50.2,44.5,86,75,62,29.88,29.62,10,1,10,0.00
2012-10-29,62.2,56.2,52.4,60.9,52.5,48.0,97,88,74,29.62,28.42,24,3,24,0.55
2012-10-30,53.6,50.5,47.0,51.0,47.1,41.7,94,88,80,29.47,28.86,6,2,21,0.07
2012-10-31,50.4,44.4,32.0,50.0,41.5,32.0,96,74,50,29.53,29.47,1,0,4,0.00
2012-11-1,51.8,49.6,46.9,50.0,45.8,41.0,82,63,50,29.61,29.51,1,0,5,0.00
2012-11-2,52.7,47.0,43.4,41.3,37.8,33.5,83,71,55,29.76,29.61,11,1,11,0.00
2012-11-3,50.2,44.4,37.9,34.8,32.6,29.9,83,64,51,29.95,29.76,15,2,15,0.00
2012-11-4,49.6,42.9,36.0,35.1,32.8,30.8,84,68,55,29.98,29.92,9,1,10,0.00
2012-11-5,45.9,40.5,33.5,32.4,27.2,22.2,68,59,46,30.16,29.95,10,1,10,0.00
2012-11-6,43.2,34.3,25.2,27.0,23.6,20.0,90,67,43,30.22,30.04,6,0,6,0.00
2012-11-7,40.3,37.3,33.6,33.8,28.6,20.8,94,72,50,30.05,29.82,11,2,11,0.10
2012-11-8,45.9,40.0,33.1,32.1,27.8,23.4,96,64,44,29.92,29.74,12,1,13,0.46
2012-11-9,54.1,43.4,32.5,35.7,30.1,25.7,87,61,35,30.19,29.92,13,1,13,0.01
2012-11-10,55.2,43.8,33.3,41.8,37.4,31.2,95,80,58,30.40,30.19,4,0,4,0.00
2012-11-11,65.6,49.4,37.1,51.1,44.4,35.7,98,84,55,30.47,30.39,4,0,4,0.00
2012-11-12,69.5,54.1,39.7,58.0,50.2,38.1,98,88,60,30.44,30.14,8,0,8,0.00
2012-11-13,62.3,48.2,37.6,59.5,42.2,30.6,96,80,63,30.43,30.08,14,1,14,0.13
2012-11-14,47.6,39.1,30.6,32.1,29.4,26.4,92,69,49,30.50,30.42,8,1,8,0.00
2012-11-15,46.3,38.4,31.0,33.3,29.7,26.1,90,72,52,30.44,30.28,5,0,5,0.00
2012-11-16,47.5,39.2,31.2,31.2,29.4,27.6,89,69,49,30.42,30.27,6,0,6,0.00
2012-11-17,52.7,40.9,29.7,35.7,31.7,26.4,91,71,48,30.62,30.42,7,0,7,0.00
2012-11-18,50.6,40.0,31.4,39.1,33.6,29.0,92,79,59,30.64,30.53,5,0,5,0.00
2012-11-19,48.8,43.2,35.9,40.6,36.9,32.4,89,79,69,30.53,30.22,7,1,7,0.00
2012-11-20,51.9,41.3,31.1,36.9,33.5,29.2,95,75,48,30.22,30.08,4,0,4,0.00
2012-11-21,53.6,41.4,31.6,38.1,32.5,29.1,93,73,42,30.21,30.11,6,0,6,0.00
2012-11-22,54.8,41.5,31.3,43.4,35.8,28.4,93,81,59,30.25,30.11,4,0,4,0.00
2012-11-23,56.9,43.5,29.5,44.8,37.7,28.0,96,81,52,30.11,29.67,6,0,6,0.00
2012-11-24,47.9,40.4,34.7,43.5,27.4,21.5,88,60,48,29.85,29.66,17,2,17,0.00
2012-11-25,42.4,36.1,28.2,26.3,23.3,18.4,82,60,51,29.96,29.85,11,1,11,0.00
2012-11-26,48.5,36.3,27.9,29.9,25.4,23.3,87,67,38,30.24,29.95,11,0,11,0.00
2012-11-27,38.1,34.8,29.3,34.4,31.6,24.8,96,89,65,30.26,30.18,4,0,4,0.38
2012-11-28,40.8,34.8,28.4,33.8,28.4,24.1,96,78,54,30.28,30.16,9,1,9,0.10
2012-11-29,43.3,33.6,25.9,30.6,26.8,23.0,90,77,57,30.36,30.26,7,0,7,0.00
2012-11-30,46.0,37.1,26.7,39.1,30.9,24.2,93,79,56,30.41,30.30,4,0,4,0.00
2012-12-1,42.0,39.7,37.3,38.9,35.0,31.2,93,83,78,30.49,30.40,6,1,6,0.00
2012-12-2,49.5,43.7,39.7,45.6,42.1,38.9,98,94,84,30.40,30.10,3,0,3,0.08
2012-12-3,61.4,49.2,40.6,53.6,46.0,39.8,98,89,68,30.24,30.09,9,0,9,0.00
2012-12-4,67.2,53.2,42.2,58.3,49.8,40.9,97,89,69,30.24,29.95,5,0,5,0.02
2012-12-5,54.6,49.4,34.7,53.0,38.7,20.1,97,68,46,30.24,29.89,14,2,14,0.02
2012-12-6,40.9,33.6,27.0,25.0,21.9,19.2,87,63,43,30.35,30.22,9,0,10,0.00
2012-12-7,42.2,34.9,26.2,41.7,33.1,23.3,98,93,87,30.27,29.99,2,0,2,0.20
2012-12-8,50.1,46.5,42.2,49.0,45.7,41.4,98,97,94,29.99,29.85,3,0,3,0.23
2012-12-9,48.4,44.4,41.9,47.6,42.5,38.8,98,93,84,30.22,29.98,6,0,6,0.13
2012-12-10,55.2,49.9,44.5,54.8,49.4,43.7,99,98,97,29.98,29.52,4,0,4,0.03
2012-12-11,53.9,45.4,38.2,53.5,37.7,31.4,99,75,59,30.18,29.55,12,1,12,0.04
2012-12-12,44.2,36.4,31.1,33.2,30.0,27.2,94,79,53,30.37,30.17,7,0,7,0.00
2012-12-13,45.6,35.1,28.3,31.6,27.5,25.5,92,76,46,30.44,30.30,1,0,6,0.00
2012-12-14,48.6,35.2,24.4,31.2,27.7,22.7,94,76,47,30.30,30.13,7,0,8,0.00
2012-12-15,46.3,36.7,27.8,37.0,31.9,25.8,97,83,66,30.31,30.17,3,0,4,0.00
2012-12-16,49.4,46.1,40.8,47.7,43.4,36.8,97,91,83,30.17,29.91,5,0,5,0.09
2012-12-24,39.2,32.4,24.2,32.9,26.5,22.0,96,80,58,30.08,29.90,1,0,4,0.00
2012-12-25,40.6,36.9,31.7,35.0,32.1,26.9,97,83,71,30.23,29.88,2,1,8,0.04
2012-12-26,38.1,32.3,28.1,36.8,28.7,22.9,96,87,73,30.26,29.46,3,2,14,1.35
2012-12-27,40.2,36.9,31.0,38.6,31.8,21.8,95,82,68,29.86,29.25,4,3,15,0.31
2012-12-28,38.3,33.1,26.9,26.9,24.6,21.7,89,71,62,30.06,29.85,2,1,7,0.00
2012-12-29,33.5,31.4,26.5,32.0,28.7,23.7,95,89,81,30.03,29.50,2,0,6,0.00
2012-12-30,35.7,32.3,26.7,28.1,20.0,16.1,85,61,52,30.19,29.60,21,2,21,0.00
2012-12-31,37.7,32.6,24.8,28.7,24.1,16.5,79,71,62,30.20,29.89,6,0,6,0.01
2013-1-1,40.6,36.4,28.5,32.7,27.6,14.5,82,70,55,30.01,29.83,10,1,10,0.05